Location: Lake Runnemede Observatory
(43.4843°N, 72.3851°W)
Time: 00:12:44
(UTC-05:00)

Amateur Radio Satellites - All Passes

Search period start: 22 December 2014 23:42
Search period end: 23 December 2014 23:42
Location: Lake Runnemede Observatory, 43.4843°N, 72.3851°W

Satellite Date Start Highest point End Downlink Frequencies (MHz)
Time Altitude Azimuth
BUGSAT 1 22 Dec 23:53:24 23:56:51 27° 292° (WNW) 00:00:19 437.445
TISAT 1 23 Dec 00:01:59 00:05:28 25° 265° (W) 00:08:59 437.305
DUCHIFAT 1 23 Dec 00:06:49 00:09:44 18° 296° (WNW) 00:12:39 145.980
TIGRISAT 23 Dec 00:07:19 00:09:58 15° 299° (WNW) 00:12:37 435.000
YUBILEINY 23 Dec 00:12:26 00:21:01 60° 283° (WNW) 00:29:38 435.215
AUBIESAT-1 23 Dec 00:12:38 00:17:07 39° 64° (ENE) 00:21:37 437.475
SPROUT 23 Dec 00:13:42 00:17:00 22° 266° (W) 00:20:18 437.525
SWISSCUBE 23 Dec 00:18:02 00:22:49 76° 74° (ENE) 00:27:37 437.505
ITUPSAT 1 23 Dec 00:19:33 00:24:19 71° 74° (ENE) 00:29:07 437.325
QB50P2 23 Dec 00:23:04 00:25:00 13° 299° (WNW) 00:26:56 145.880/145.840
O/OREOS (USA 219) 23 Dec 00:32:29 00:36:49 51° 297° (WNW) 00:41:11 437.305
POLYITAN 1 23 Dec 00:33:53 00:34:38 10° 300° (WNW) 00:35:22 437.675
NANOSAT C BR1 23 Dec 00:33:53 00:34:36 10° 300° (WNW) 00:35:18 145.865
Oscar 19 23 Dec 00:38:09 00:42:35 28° 95° (E) 00:46:59 437.125/150
M-CUBED/EXP-1 PRIME 23 Dec 00:39:41 00:44:33 75° 69° (ENE) 00:49:27 437.505
BEESAT 23 Dec 00:42:34 00:47:20 68° 258° (WSW) 00:52:07 436.000
STARS 23 Dec 00:57:45 01:01:20 25° 66° (ENE) 01:04:57 437.465
ITAMSAT 1 23 Dec 01:00:21 01:03:32 16° 91° (E) 01:06:43 435.822/435.867
KKS-1 23 Dec 01:06:10 01:10:22 45° 71° (ENE) 01:14:36 437.445
Gurwin Techsat 1B 23 Dec 01:10:43 01:13:05 13° 88° (E) 01:15:26 435.225
AUBIESAT-1 23 Dec 01:47:56 01:52:05 28° 260° (W) 01:56:16 437.475
VERMONT LUNAR 23 Dec 01:52:30 01:55:25 24° 158° (SSE) 01:58:20 437.305
SWISSCUBE 23 Dec 01:59:18 02:01:13 12° 271° (W) 02:03:08 437.505
ITUPSAT 1 23 Dec 02:00:29 02:02:43 13° 271° (W) 02:04:57 437.325
YUBILEINY 23 Dec 02:16:43 02:20:02 12° 307° (NW) 02:23:21 435.215
Oscar 19 23 Dec 02:17:11 02:22:00 39° 292° (WNW) 02:26:47 437.125/150
M-CUBED/EXP-1 PRIME 23 Dec 02:17:26 02:19:59 14° 266° (W) 02:22:35 437.505
PHONESAT 2.4 23 Dec 02:18:40 02:21:41 25° 158° (SSE) 02:24:43 2401.200-2431.200
HORYU 2 23 Dec 02:28:39 02:32:25 25° 95° (E) 02:36:08 437.375
STARS 23 Dec 02:33:46 02:37:41 32° 263° (W) 02:41:38 437.465
MOZHAYETS 4 23 Dec 02:35:38 02:38:13 15° 61° (ENE) 02:40:48
ITAMSAT 1 23 Dec 02:38:21 02:43:29 65° 288° (WNW) 02:48:35 435.822/435.867
KKS-1 23 Dec 02:44:12 02:47:14 18° 268° (W) 02:50:18 437.445
Gurwin Techsat 1B 23 Dec 02:48:21 02:53:41 83° 285° (WNW) 02:58:59 435.225
SO-50 23 Dec 02:58:01 03:00:49 15° 33° (NNE) 03:03:38 436.795
AIST 1 23 Dec 03:03:49 03:08:07 88° 263° (W) 03:12:22
VERMONT LUNAR 23 Dec 03:29:56 03:33:21 50° 174° (S) 03:36:47 437.305
AO-7 23 Dec 03:42:21 03:50:26 49° 101° (E) 03:58:26 29.400- 29.500
PHONESAT 2.4 23 Dec 03:56:28 04:00:00 51° 174° (S) 04:03:32 2401.200-2431.200
PRISM 23 Dec 03:58:38 04:01:06 15° 63° (ENE) 04:03:34 437.425
HORYU 2 23 Dec 04:05:02 04:09:06 33° 292° (WNW) 04:13:08 437.375
CUBESAT XI-V 23 Dec 04:08:25 04:08:54 10° 58° (ENE) 04:09:23 437.345
MOZHAYETS 4 23 Dec 04:10:16 04:14:53 67° 259° (WSW) 04:19:33
GONETS M04 23 Dec 04:12:07 04:19:58 38° 85° (E) 04:27:49
JAS-2 23 Dec 04:25:39 04:30:47 37° 96° (E) 04:35:35 435.910
Gurwin Techsat 1B 23 Dec 04:30:39 04:32:49 13° 304° (WNW) 04:34:58 435.225
SO-50 23 Dec 04:37:22 04:42:16 69° 54° (NE) 04:47:09 436.795
CUTE-I 23 Dec 04:49:09 04:51:18 12° 88° (E) 04:53:27 437.470
VERMONT LUNAR 23 Dec 05:08:04 05:11:26 43° 191° (S) 05:14:47 437.305
STRAND 1 23 Dec 05:18:03 05:22:54 45° 69° (ENE) 05:27:45 437.568
PRISM 23 Dec 05:32:04 05:36:12 54° 259° (W) 05:40:22 437.425
PHONESAT 2.4 23 Dec 05:34:59 05:38:27 43° 191° (SSW) 05:41:54 2401.200-2431.200
AO-7 23 Dec 05:35:24 05:43:04 42° 300° (WNW) 05:50:42 29.400- 29.500
CUBESAT XI-V 23 Dec 05:40:53 05:45:33 82° 76° (ENE) 05:50:14 437.345
Cubesat XI-IV 23 Dec 05:54:18 05:59:29 51° 100° (E) 06:04:38 437.490
GONETS M04 23 Dec 06:08:00 06:16:31 51° 286° (WNW) 06:25:05
JAS-2 23 Dec 06:11:02 06:15:46 29° 297° (WNW) 06:20:13 435.910
SO-50 23 Dec 06:19:15 06:22:17 17° 251° (WSW) 06:25:19 436.795
CUTE-I 23 Dec 06:26:42 06:32:03 85° 285° (WNW) 06:37:22 437.470
VERMONT LUNAR 23 Dec 06:46:53 06:49:14 17° 207° (SSW) 06:51:35 437.305
STRAND 1 23 Dec 06:58:16 07:02:17 23° 266° (W) 07:06:18 437.568
PHONESAT 2.4 23 Dec 07:14:10 07:16:38 17° 207° (SSW) 07:19:06 2401.200-2431.200
CUBESAT XI-V 23 Dec 07:22:41 07:23:35 11° 272° (W) 07:24:29 437.345
AO-7 23 Dec 07:32:09 07:33:36 11° 323° (NW) 07:35:02 29.400- 29.500
Cubesat XI-IV 23 Dec 07:35:07 07:39:14 23° 297° (WNW) 07:43:21 437.490
AAUSAT CUBESAT 2 23 Dec 07:53:52 07:55:24 12° 89° (E) 07:56:56 437.432
MaSat-1 23 Dec 07:58:15 08:00:29 87° 283° (WNW) 08:02:41 437.345
HO-68 23 Dec 08:01:06 08:07:26 33° 96° (E) 08:13:44 435.675
CUTE-I 23 Dec 08:08:57 08:11:18 13° 303° (WNW) 08:13:39 437.470
GONETS M04 23 Dec 08:14:52 08:15:56 10° 310° (NW) 08:17:00
CANX-2 23 Dec 08:15:45 08:19:45 35° 97° (E) 08:23:42 2200.000
UNISAT 6 23 Dec 08:25:14 08:27:58 16° 62° (ENE) 08:30:44 437.425
YUBILEINY 23 Dec 08:26:03 08:31:07 16° 57° (ENE) 08:36:09 435.215
COMPASS 1 23 Dec 08:29:25 08:33:17 33° 96° (E) 08:37:07 437.405
DELFI C3 23 Dec 08:30:20 08:31:52 12° 89° (E) 08:33:24 145.870
QB50P1 23 Dec 08:31:37 08:32:55 11° 60° (ENE) 08:34:14 145.935-145.965
DANDE 23 Dec 08:35:35 08:39:00 32° 88° (E) 08:43:27 436.750
CUBEBUG 2 23 Dec 08:37:32 08:39:51 14° 90° (E) 08:42:11 437.445
SEEDS 23 Dec 08:38:44 08:42:56 50° 99° (E) 08:47:04 437.485
BRITE-PL 23 Dec 08:43:12 08:48:00 75° 102° (ESE) 08:53:10 437.365/2234.400
CUTE 1.7 + AOD 2 23 Dec 08:45:57 08:50:17 70° 102° (ESE) 08:54:33 437.475
GOMX 1 23 Dec 08:55:16 09:00:06 72° 102° (ESE) 09:05:16 467.674
ANTELSAT 23 Dec 08:56:00 08:59:55 32° 68° (ENE) 09:03:56 437.575/2403.000
POPSAT HIP 1 23 Dec 08:58:33 09:01:44 21° 66° (ENE) 09:04:56 437.405
RS-15 23 Dec 09:00:30 09:05:41 15° 96° (E) 09:10:51 29.354- 29.394
FUNcube-1 23 Dec 09:00:59 09:03:54 17° 91° (E) 09:06:48 145.935
O/OREOS (USA 219) 23 Dec 09:01:59 09:06:14 39° 61° (ENE) 09:10:29 437.305
DOVE 4 23 Dec 09:07:20 09:12:11 71° 102° (ESE) 09:17:17 437.250
UWE-3 23 Dec 09:08:30 09:12:14 24° 94° (E) 09:16:00 435.000/436.395/437.385
BUGSAT 1 23 Dec 09:10:00 09:13:08 22° 66° (ENE) 09:16:15 437.445
CINEMA 3 23 Dec 09:11:35 09:16:14 48° 99° (E) 09:21:00 145.822/145.860
CUSAT 1 23 Dec 09:11:57 09:15:53 81° 281° (W) 09:21:18 437.405
HUMSAT D 23 Dec 09:14:35 09:16:29 13° 90° (E) 09:18:23 437.325/437.525
DX 1 23 Dec 09:15:07 09:19:03 33° 97° (E) 09:22:58 434.975-435.025
DUCHIFAT 1 23 Dec 09:24:11 09:28:04 38° 70° (ENE) 09:31:59 145.980
AAUSAT CUBESAT 2 23 Dec 09:27:17 09:31:30 64° 286° (WNW) 09:35:40 437.432
TIGRISAT 23 Dec 09:29:07 09:33:28 68° 74° (ENE) 09:37:57 435.000
AISAT 23 Dec 09:31:39 09:34:42 18° 93° (E) 09:37:44 437.250
Oscar 11 23 Dec 09:32:15 09:36:38 71° 102° (ESE) 09:40:58 145.826/435.025
QB50P2 23 Dec 09:39:38 09:43:46 59° 73° (ENE) 09:47:56 145.880/145.840
UKube-1 23 Dec 09:42:43 09:47:02 64° 102° (ESE) 09:51:20 .
HO-68 23 Dec 09:48:30 09:55:21 51° 294° (WNW) 10:02:10 435.675
NANOSAT C BR1 23 Dec 09:49:03 09:53:14 74° 75° (ENE) 09:57:27 145.865
POLYITAN 1 23 Dec 09:49:28 09:53:40 76° 75° (ENE) 09:57:54 437.675
CANX-2 23 Dec 09:52:07 09:55:29 22° 294° (WNW) 09:58:49 2200.000
UNISAT 6 23 Dec 09:59:58 10:04:16 56° 260° (W) 10:08:44 437.425
50 SAT 23 Dec 10:03:16 10:07:02 32° 97° (E) 10:10:47 437.505
DELFI C3 23 Dec 10:03:27 10:07:32 60° 286° (WNW) 10:11:33 145.870
QB50P1 23 Dec 10:04:00 10:08:12 76° 258° (WSW) 10:12:26 145.935-145.965
COMPASS 1 23 Dec 10:05:28 10:08:50 23° 293° (WNW) 10:12:12 437.405
ZACube-1 23 Dec 10:10:08 10:14:43 85° 104° (ESE) 10:19:20 437.345
CUBEBUG 2 23 Dec 10:12:19 10:16:58 68° 285° (WNW) 10:21:41 437.445
SEEDS 23 Dec 10:15:39 10:18:21 17° 296° (WNW) 10:21:03 437.485
DANDE 23 Dec 10:19:31 10:22:42 22° 298° (WNW) 10:26:40 436.750
YUBILEINY 23 Dec 10:20:54 10:29:38 75° 80° (E) 10:38:19 435.215
VELOX 1 23 Dec 10:22:14 10:26:37 59° 101° (E) 10:30:59 145.980
BRITE-PL 23 Dec 10:23:28 10:26:02 15° 297° (WNW) 10:28:41 437.365/2234.400
CUTE 1.7 + AOD 2 23 Dec 10:23:47 10:25:37 13° 299° (WNW) 10:27:28 437.475
ANTELSAT 23 Dec 10:33:02 10:36:44 26° 266° (W) 10:40:31 437.575/2403.000
POPSAT HIP 1 23 Dec 10:33:33 10:37:25 35° 263° (W) 10:41:19 437.405
GOMX 1 23 Dec 10:34:59 10:37:45 15° 297° (WNW) 10:40:36 467.674
ESTCUBE 1 23 Dec 10:35:41 10:39:48 34° 97° (E) 10:43:52 437.505/2401.250
FUNcube-1 23 Dec 10:36:05 10:40:31 53° 287° (WNW) 10:44:59 145.935
O/OREOS (USA 219) 23 Dec 10:41:55 10:45:23 22° 258° (WSW) 10:48:51 437.305
UWE-3 23 Dec 10:44:36 10:48:51 37° 290° (WNW) 10:53:09 435.000/436.395/437.385
BUGSAT 1 23 Dec 10:44:48 10:48:28 32° 263° (W) 10:52:07 437.445
DOVE 4 23 Dec 10:46:39 10:49:27 16° 297° (WNW) 10:52:20 437.250
HUMSAT D 23 Dec 10:48:23 10:52:41 63° 286° (WNW) 10:56:59 437.325/437.525
CINEMA 3 23 Dec 10:49:32 10:53:07 21° 295° (WNW) 10:56:47 145.822/145.860
DX 1 23 Dec 10:51:38 10:55:09 24° 294° (WNW) 10:58:39 434.975-435.025
DUCHIFAT 1 23 Dec 11:01:05 11:04:04 19° 267° (W) 11:07:05 145.980
CUBEBUG 1 23 Dec 11:02:13 11:06:31 62° 101° (E) 11:10:49 437.445
RS-15 23 Dec 11:04:59 11:15:47 70° 117° (ESE) 11:26:37 29.354- 29.394
AISAT 23 Dec 11:07:18 11:11:33 45° 289° (WNW) 11:15:47 437.250
TIGRISAT 23 Dec 11:09:04 11:10:44 12° 272° (W) 11:12:24 435.000
Oscar 11 23 Dec 11:10:19 11:12:13 13° 299° (WNW) 11:14:07 145.826/435.025
BEESAT 2 23 Dec 11:13:07 11:14:49 12° 108° (ESE) 11:16:32 435.950
QB50P2 23 Dec 11:18:12 11:20:04 13° 270° (W) 11:21:57 145.880/145.840
UKube-1 23 Dec 11:20:28 11:22:41 14° 299° (WNW) 11:24:54 .
ISS 23 Dec 11:23:47 11:25:45 15° 132° (SE) 11:27:43 145.825
50 SAT 23 Dec 11:38:48 11:42:04 23° 293° (WNW) 11:45:19 437.505
HO-68 23 Dec 11:39:49 11:41:25 11° 315° (NW) 11:43:01 435.675
TISAT 1 23 Dec 11:45:02 11:49:06 44° 99° (E) 11:53:10 437.305
ZACube-1 23 Dec 11:48:51 11:50:25 12° 300° (WNW) 11:51:59 437.345
Oscar 19 23 Dec 11:56:00 12:00:52 45° 69° (ENE) 12:05:47 437.125/150
SPROUT 23 Dec 11:58:10 12:02:26 59° 101° (E) 12:06:41 437.525
VELOX 1 23 Dec 12:00:10 12:02:43 15° 298° (WNW) 12:05:16 145.980
PCSat 23 Dec 12:00:51 12:05:13 26° 108° (ESE) 12:09:37 145.827
BEESAT 3 23 Dec 12:05:49 12:09:46 49° 119° (ESE) 12:13:47 437.485
ESTCUBE 1 23 Dec 12:12:51 12:16:31 25° 294° (WNW) 12:20:09 437.505/2401.250
SWISSCUBE 23 Dec 12:18:31 12:21:44 18° 92° (E) 12:24:55 437.505
YUBILEINY 23 Dec 12:19:02 12:25:30 24° 280° (W) 12:31:59 435.215
ITAMSAT 1 23 Dec 12:19:06 12:23:30 29° 65° (ENE) 12:27:55 435.822/435.867
ITUPSAT 1 23 Dec 12:20:23 12:23:27 17° 91° (E) 12:26:29 437.325
AIST 2 23 Dec 12:30:20 12:34:14 37° 116° (ESE) 12:38:12 435.215
Gurwin Techsat 1B 23 Dec 12:32:12 12:36:25 25° 63° (ENE) 12:40:38 435.225
CUBEBUG 1 23 Dec 12:40:07 12:42:24 14° 298° (WNW) 12:44:40 437.445
BEESAT 23 Dec 12:42:13 12:46:19 28° 95° (E) 12:50:24 436.000
BEESAT 2 23 Dec 12:48:23 12:52:29 69° 305° (NW) 12:56:41 435.950
AO-7 23 Dec 12:53:56 12:59:09 19° 46° (NE) 13:04:23 29.400- 29.500
ISS 23 Dec 12:58:39 13:01:58 75° 329° (NNW) 13:05:16 145.825
RS-15 23 Dec 13:18:43 13:28:53 42° 323° (NW) 13:39:15 29.354- 29.394
TISAT 1 23 Dec 13:21:45 13:24:36 18° 296° (WNW) 13:27:27 437.305
HORYU 2 23 Dec 13:28:27 13:32:14 28° 67° (ENE) 13:36:04 437.375
AUBIESAT-1 23 Dec 13:29:56 13:33:11 22° 97° (E) 13:36:13 437.475
SPROUT 23 Dec 13:35:43 13:38:03 14° 298° (WNW) 13:40:22 437.525
Oscar 19 23 Dec 13:36:19 13:40:24 24° 267° (W) 13:44:32 437.125/150
PCSat 23 Dec 13:43:05 13:48:19 50° 306° (NW) 13:53:37 145.827
BEESAT 3 23 Dec 13:45:00 13:48:12 21° 318° (NW) 13:51:26 437.485
SWISSCUBE 23 Dec 13:55:16 13:59:54 52° 289° (WNW) 14:04:30 437.505
ITUPSAT 1 23 Dec 13:57:01 14:01:41 55° 288° (WNW) 14:06:19 437.325
M-CUBED/EXP-1 PRIME 23 Dec 13:57:19 14:01:30 48° 104° (ESE) 14:05:17 437.505
ITAMSAT 1 23 Dec 13:58:04 14:02:51 38° 262° (W) 14:07:40 435.822/435.867
AIST 2 23 Dec 14:09:16 14:12:56 27° 315° (NW) 14:16:39 435.215
Gurwin Techsat 1B 23 Dec 14:10:59 14:16:05 47° 261° (W) 14:21:13 435.225
BEESAT 23 Dec 14:19:55 14:24:10 33° 292° (WNW) 14:28:24 436.000
GONETS M04 23 Dec 14:21:00 14:27:02 20° 60° (ENE) 14:32:59
STARS 23 Dec 14:22:10 14:26:24 41° 99° (E) 14:30:36 437.465
BEESAT 2 23 Dec 14:29:51 14:31:32 12° 326° (NW) 14:33:13 435.950
KKS-1 23 Dec 14:32:31 14:37:01 80° 103° (ESE) 14:41:30 437.445
ISS 23 Dec 14:36:14 14:38:56 23° 348° (NNW) 14:41:38 145.825
JAS-2 23 Dec 14:38:25 14:44:11 26° 62° (ENE) 14:49:32 435.910
AO-7 23 Dec 14:42:16 14:50:32 72° 68° (ENE) 14:58:51 29.400- 29.500
AUBIESAT-1 23 Dec 15:04:23 15:08:16 34° 297° (WNW) 15:11:49 437.475
HORYU 2 23 Dec 15:04:53 15:08:49 30° 264° (W) 15:12:48 437.375
PCSat 23 Dec 15:31:07 15:33:06 12° 329° (NNW) 15:35:05 145.827
M-CUBED/EXP-1 PRIME 23 Dec 15:33:13 15:36:04 18° 304° (WNW) 15:38:46 437.505
AIST 1 23 Dec 15:34:27 15:38:41 51° 94° (E) 15:42:55
RS-15 23 Dec 15:36:47 15:45:16 24° 357° (N) 15:53:56 29.354- 29.394
Cubesat XI-IV 23 Dec 15:40:53 15:43:34 14° 57° (ENE) 15:46:15 437.490
STARS 23 Dec 15:59:18 16:02:36 21° 295° (WNW) 16:05:53 437.465
MOZHAYETS 4 23 Dec 16:04:54 16:08:49 27° 94° (E) 16:12:41
CUTE-I 23 Dec 16:11:18 16:15:33 25° 63° (ENE) 16:19:47 437.470
KKS-1 23 Dec 16:11:21 16:13:01 12° 300° (WNW) 16:14:42 437.445
ISS 23 Dec 16:13:42 16:16:18 21° 8° (N) 16:18:53 145.825
GONETS M04 23 Dec 16:16:26 16:25:15 87° 82° (E) 16:33:57
JAS-2 23 Dec 16:21:14 16:28:46 69° 258° (WSW) 16:35:35 435.910
AO-7 23 Dec 16:37:18 16:43:58 26° 267° (W) 16:50:43 29.400- 29.500
AIST 1 23 Dec 17:14:08 17:16:40 15° 291° (WNW) 17:19:13
PRISM 23 Dec 17:14:53 17:17:51 19° 93° (E) 17:20:49 437.425
Cubesat XI-IV 23 Dec 17:17:34 17:22:54 88° 255° (WSW) 17:28:16 437.490
MaSat-1 23 Dec 17:26:07 17:28:21 36° 246° (WSW) 17:30:43 437.345
STRAND 1 23 Dec 17:29:04 17:31:33 14° 89° (E) 17:34:00 437.568
DANDE 23 Dec 17:33:28 17:35:41 11° 55° (NE) 17:37:57 436.750
CUBESAT XI-V 23 Dec 17:37:36 17:40:50 19° 92° (E) 17:44:04 437.345
MOZHAYETS 4 23 Dec 17:41:56 17:46:03 32° 292° (WNW) 17:50:07
ISS 23 Dec 17:50:09 17:53:23 55° 28° (NNE) 17:56:36 145.825
CUTE-I 23 Dec 17:50:13 17:55:19 47° 261° (W) 18:00:27 437.470
RS-15 23 Dec 17:52:05 18:02:06 36° 31° (NNE) 18:12:27 29.354- 29.394
CUSAT 1 23 Dec 18:06:10 18:12:02 22° 63° (ENE) 18:18:15 437.405
JAS-2 23 Dec 18:12:04 18:14:41 12° 274° (W) 18:17:14 435.910
GONETS M04 23 Dec 18:15:05 18:20:50 20° 283° (WNW) 18:26:35
HO-68 23 Dec 18:31:23 18:37:23 30° 59° (ENE) 18:43:22 435.675
AAUSAT CUBESAT 2 23 Dec 18:47:40 18:48:37 11° 60° (ENE) 18:49:33 437.432
PRISM 23 Dec 18:49:41 18:53:31 37° 290° (WNW) 18:57:19 437.425
SO-50 23 Dec 18:55:06 18:57:52 16° 109° (ESE) 19:00:42 436.795
Cubesat XI-IV 23 Dec 19:02:08 19:03:44 11° 273° (W) 19:05:20 437.490
STRAND 1 23 Dec 19:06:12 19:11:18 75° 286° (WNW) 19:16:22 437.568
CANX-2 23 Dec 19:10:12 19:13:57 30° 69° (ENE) 19:17:43 2200.000
DANDE 23 Dec 19:13:13 19:20:50 50° 74° (ENE) 19:29:12 436.750
CUBESAT XI-V 23 Dec 19:14:07 19:18:31 46° 289° (WNW) 19:22:53 437.345
DELFI C3 23 Dec 19:22:04 19:22:18 10° 60° (ENE) 19:22:32 145.870
COMPASS 1 23 Dec 19:22:28 19:26:03 27° 68° (ENE) 19:29:40 437.405
ISS 23 Dec 19:27:12 19:29:43 21° 225° (SW) 19:32:14 145.825
BEESAT 2 23 Dec 19:30:13 19:32:54 16° 39° (NE) 19:35:32 435.950
SEEDS 23 Dec 19:32:14 19:36:14 41° 71° (ENE) 19:40:15 437.485
CUBEBUG 2 23 Dec 19:38:23 19:40:11 13° 60° (ENE) 19:42:01 437.445
CUTE 1.7 + AOD 2 23 Dec 19:40:00 19:44:12 58° 74° (ENE) 19:48:26 437.475
CUSAT 1 23 Dec 19:48:01 19:56:01 87° 80° (E) 20:04:34 437.405
BRITE-PL 23 Dec 19:56:12 20:00:21 85° 257° (WSW) 20:04:33 437.365/2234.400
FUNcube-1 23 Dec 19:59:11 20:01:34 15° 62° (ENE) 20:03:59 145.935
RS-15 23 Dec 20:04:41 20:16:00 88° 238° (WSW) 20:27:49 29.354- 29.394
GOMX 1 23 Dec 20:05:28 20:09:35 85° 76° (ENE) 20:13:50 467.674
UWE-3 23 Dec 20:07:44 20:10:56 21° 65° (ENE) 20:14:13 435.000/436.395/437.385
HUMSAT D 23 Dec 20:09:25 20:10:37 11° 60° (ENE) 20:11:50 437.325/437.525
DX 1 23 Dec 20:12:02 20:15:57 34° 69° (ENE) 20:19:52 434.975-435.025
DOVE 4 23 Dec 20:14:57 20:19:05 79° 76° (ENE) 20:23:22 437.250
CINEMA 3 23 Dec 20:15:10 20:19:10 46° 72° (ENE) 20:23:19 145.822/145.860
HO-68 23 Dec 20:17:35 20:24:39 60° 258° (WSW) 20:31:45 435.675
AAUSAT CUBESAT 2 23 Dec 20:19:24 20:23:37 81° 257° (WSW) 20:27:53 437.432
BEESAT 3 23 Dec 20:24:26 20:28:28 45° 51° (NE) 20:32:27 437.485
Oscar 11 23 Dec 20:28:04 20:32:21 63° 74° (ENE) 20:36:40 145.826/435.025
AISAT 23 Dec 20:31:20 20:34:32 20° 64° (ENE) 20:37:45 437.250
SO-50 23 Dec 20:33:21 20:37:52 63° 307° (NW) 20:42:33 436.795
UKube-1 23 Dec 20:38:52 20:43:08 64° 73° (ENE) 20:47:26 .
CANX-2 23 Dec 20:46:20 20:49:53 25° 266° (W) 20:53:28 2200.000
PCSat 23 Dec 20:46:41 20:51:26 30° 47° (NE) 20:56:09 145.827
STRAND 1 23 Dec 20:48:23 20:49:36 11° 304° (NW) 20:50:48 437.568
AIST 2 23 Dec 20:51:05 20:55:07 37° 49° (NE) 20:59:05 435.215
DELFI C3 23 Dec 20:52:47 20:56:54 82° 257° (WSW) 21:01:04 145.870
50 SAT 23 Dec 20:53:03 20:56:20 25° 67° (ENE) 20:59:39 437.505
DANDE 23 Dec 20:56:53 21:04:14 42° 270° (W) 21:12:12 436.750
COMPASS 1 23 Dec 20:58:05 21:01:42 27° 265° (W) 21:05:22 437.405
BEESAT 2 23 Dec 21:07:27 21:11:40 77° 238° (WSW) 21:15:48 435.950
ZACube-1 23 Dec 21:07:32 21:11:44 77° 76° (ENE) 21:16:03 437.345
SEEDS 23 Dec 21:09:15 21:12:14 18° 268° (W) 21:15:14 437.485
CUBEBUG 2 23 Dec 21:12:06 21:16:17 69° 259° (WSW) 21:20:37 437.445
CUTE 1.7 + AOD 2 23 Dec 21:18:25 21:20:30 13° 270° (W) 21:22:35 437.475
VELOX 1 23 Dec 21:21:12 21:25:33 62° 73° (ENE) 21:29:55 145.980
TIGRISAT 23 Dec 21:21:19 21:23:51 14° 90° (E) 21:26:23 435.000
YUBILEINY 23 Dec 21:31:11 21:36:04 17° 75° (ENE) 21:40:56 435.215
CUSAT 1 23 Dec 21:32:32 21:38:19 22° 277° (W) 21:44:22 437.405
FUNcube-1 23 Dec 21:33:19 21:37:26 55° 260° (W) 21:41:41 145.935
NANOSAT C BR1 23 Dec 21:35:40 21:36:56 11° 89° (E) 21:38:11 145.865
POLYITAN 1 23 Dec 21:36:19 21:37:53 12° 90° (E) 21:39:27 437.675
ESTCUBE 1 23 Dec 21:36:37 21:40:47 37° 70° (ENE) 21:44:57 437.505/2401.250
HUMSAT D 23 Dec 21:41:39 21:45:47 76° 258° (WSW) 21:50:01 437.325/437.525
UWE-3 23 Dec 21:43:22 21:47:15 36° 263° (W) 21:51:15 435.000/436.395/437.385
DX 1 23 Dec 21:48:48 21:52:15 23° 265° (W) 21:55:43 434.975-435.025
QB50P1 23 Dec 21:49:27 21:52:10 16° 92° (E) 21:54:52 145.935-145.965
UNISAT 6 23 Dec 21:51:08 21:55:15 29° 95° (E) 21:59:21 437.425
CINEMA 3 23 Dec 21:54:08 21:56:42 16° 270° (W) 21:59:19 145.822/145.860
CUBEBUG 1 23 Dec 21:59:36 22:03:53 60° 73° (ENE) 22:08:11 437.445
BEESAT 3 23 Dec 22:03:21 22:06:19 19° 248° (WSW) 22:09:16 437.485
AISAT 23 Dec 22:06:41 22:10:52 42° 261° (W) 22:15:05 437.250
Oscar 11 23 Dec 22:07:06 22:08:56 12° 271° (W) 22:10:47 145.826/435.025
SO-50 23 Dec 22:17:04 22:19:24 14° 329° (NNW) 22:21:45 436.795
POPSAT HIP 1 23 Dec 22:17:44 22:21:36 32° 97° (E) 22:25:27 437.405
UKube-1 23 Dec 22:17:56 22:19:43 12° 270° (W) 22:21:30 .
RS-15 23 Dec 22:18:39 22:26:53 24° 259° (W) 22:35:24 29.354- 29.394
ANTELSAT 23 Dec 22:23:02 22:27:44 61° 101° (E) 22:32:24 437.575/2403.000
BUGSAT 1 23 Dec 22:25:55 22:29:33 30° 97° (E) 22:33:11 437.445
50 SAT 23 Dec 22:27:58 22:31:26 28° 264° (W) 22:34:58 437.505
PCSat 23 Dec 22:29:51 22:35:03 47° 246° (WSW) 22:40:12 145.827
AIST 2 23 Dec 22:30:03 22:33:34 25° 247° (WSW) 22:37:02 435.215
TISAT 1 23 Dec 22:38:52 22:42:47 39° 71° (ENE) 22:46:42 437.305
DUCHIFAT 1 23 Dec 22:43:38 22:47:52 63° 101° (E) 22:52:06 145.980
SPROUT 23 Dec 22:53:34 22:57:43 53° 73° (ENE) 23:01:54 437.525
TIGRISAT 23 Dec 22:56:20 23:01:01 65° 286° (WNW) 23:05:41 435.000
QB50P2 23 Dec 22:59:50 23:04:08 85° 284° (WNW) 23:08:25 145.880/145.840
VELOX 1 23 Dec 23:00:28 23:02:32 13° 270° (W) 23:04:36 145.980
NANOSAT C BR1 23 Dec 23:09:00 23:13:15 68° 286° (WNW) 23:17:30 145.865
POLYITAN 1 23 Dec 23:09:59 23:14:15 66° 286° (WNW) 23:18:32 437.675
ESTCUBE 1 23 Dec 23:14:11 23:17:45 23° 266° (W) 23:21:20 437.505/2401.250
M-CUBED/EXP-1 PRIME 23 Dec 23:15:09 23:17:19 13° 53° (NE) 23:19:30 437.505
O/OREOS (USA 219) 23 Dec 23:15:34 23:19:37 35° 106° (ESE) 23:23:41 437.305
YUBILEINY 23 Dec 23:22:41 23:31:25 82° 96° (E) 23:40:09 435.215
QB50P1 23 Dec 23:24:12 23:28:18 46° 288° (WNW) 23:32:23 145.935-145.965
SWISSCUBE 23 Dec 23:26:19 23:30:09 25° 65° (ENE) 23:34:00 437.505
UNISAT 6 23 Dec 23:27:50 23:32:00 32° 292° (WNW) 23:36:10 437.425
ITUPSAT 1 23 Dec 23:28:22 23:32:09 24° 64° (ENE) 23:35:55 437.325
CUBEBUG 1 23 Dec 23:38:34 23:40:38 13° 270° (W) 23:42:43 437.445
